Flag for Norway Weather past 2 weeks in Arendal, Norway

Now
64 °F

Mild.


Feels Like: 64 °F
Forecast: 58 / 69 °F
Wind: 6 mph from Northeast

Location: Torungen Fyr

Current Time: Jul 5, 2015 at 12:31:51 PM

Latest Report: Jul 5, 2015 at 11:00 AM


Visibility: N/A

Pressure: 30.04 "Hg

Humidity: 90%

Dew point: 61 °F

Location of ArendalLocation

Historic Weather in Arendal — Graph

°F

Arendal temperature yesterday

Maximum temperature yesterday: 64 °F (at 12:00 AM)
Minimum temperature yesterday: 58 °F (at 10:00 AM)
Average temperature yesterday: 61 °F

Past Weeks' High & Low Weather Summary

 TemperatureHumidityPressure
High69 °F (Jun 24, 4:00 PM)97% (Jun 28, 6:00 AM)30.34 "Hg (Jun 28, 6:00 AM)
Low50 °F (Jun 22, 5:00 AM)34% (Jun 25, 3:00 PM)29.65 "Hg (Jun 24, 3:00 AM)
Average59 °F78%29.99 "Hg
* Reported Jun 20 11:00 AM — Jul 5 11:00 AM, Arendal, Weather by CustomWeather, © 2015

Note: Actual official high and low records may vary slightly from our data, if they occured in-between our weather recording intervals... More about our weather records

Advertising

Arendal weather history for previous 24 hours

 ConditionsComfort  
Time TempWeatherWind HumidityBarometerVisibility
11:00 AM
Sun, Jul 5
64 °FMild.6 mph90%30.04 "HgN/A
10:00 AM64 °FMild.7 mph91%30.03 "HgN/A
9:00 AM63 °FMild.7 mph92%30.03 "HgN/A
8:00 AM63 °FMild.3 mph89%30.04 "HgN/A
7:00 AM62 °FCool.2 mph90%30.04 "HgN/A
6:00 AM60 °FCool.2 mph93%30.04 "HgN/A
4:00 AM60 °FCool.2 mph94%30.06 "HgN/A
3:00 AM61 °FCool.1 mph93%30.07 "HgN/A
2:00 AM61 °FCool.2 mph93%30.07 "HgN/A
1:00 AM62 °FCool.3 mph93%30.07 "HgN/A
12:00 AM62 °FCool.5 mph93%30.09 "HgN/A
11:00 PM
Sat, Jul 4
62 °FCool.3 mph92%30.09 "HgN/A
10:00 PM62 °FCool.5 mph91%30.10 "HgN/A
9:00 PM62 °FCool.5 mph89%30.10 "HgN/A
8:00 PM62 °FCool.6 mph89%30.11 "HgN/A
7:00 PM62 °FCool.5 mph89%30.11 "HgN/A
6:00 PM61 °FCool.5 mph88%30.11 "HgN/A
5:00 PM59 °FCool.5 mph91%30.13 "HgN/A
4:00 PM60 °FCool.6 mph90%30.15 "HgN/A
3:00 PM60 °FCool.5 mph91%30.17 "HgN/A
2:00 PM60 °FCool.5 mph90%30.17 "HgN/A
1:00 PM60 °FCool.6 mph91%30.19 "HgN/A
12:00 PM60 °FCool.2 mph94%30.16 "HgN/A
Weather by CustomWeather, © 2015

See weather overviewHow to use our weather pages